OK,42,34,895,42,2014-10-01T01:40:00,3,28072665,178713
OK,27,54,895,27,2014-10-01T01:45:00,0,28073112,178713
OK,27,54,895,27,2014-10-01T01:50:00,0,28073560,178713
OK,18,81,895,18,2014-10-01T01:55:00,1,28073878,178713
OK,18,81,895,18,2014-10-01T02:00:00,1,28074327,178713
OK,22,66,895,22,2014-10-01T02:05:00,1,28074768,178713
OK,20,73,895,20,2014-10-01T02:10:00,2,28075216,178713
OK,20,73,895,20,2014-10-01T02:15:00,2,28075665,178713
OK,22,66,895,22,2014-10-01T02:20:00,0,28076050,178713
OK,22,66,895,22,2014-10-01T02:25:00,0,28076497,178713
OK,22,66,895,22,2014-10-01T02:30:00,0,28076946,178713
OK,34,42,895,34,2014-10-01T02:35:00,1,28077395,178713
OK,34,42,895,34,2014-10-01T02:40:00,0,28077798,178713
OK,34,42,895,34,2014-10-01T02:45:00,0,28078247,178713
OK,20,73,895,20,2014-10-01T02:50:00,1,28078692,178713
OK,21,69,895,21,2014-10-01T02:55:00,6,28079141,178713
OK,18,81,895,18,2014-10-01T03:00:00,1,28079583,178713
OK,22,66,895,22,2014-10-01T03:05:00,1,28080032,178713
OK,22,66,895,22,2014-10-01T03:10:00,3,28080366,178713
OK,50,29,895,50,2014-10-01T03:15:00,1,28080815,178713
OK,50,29,895,50,2014-10-01T03:20:00,0,28081264,178713
OK,50,29,895,50,2014-10-01T03:25:00,0,28081711,178713
OK,17,85,895,17,2014-10-01T03:30:00,1,28082160,178713
OK,19,76,895,19,2014-10-01T03:35:00,5,28082593,178713
OK,29,50,895,29,2014-10-01T03:40:00,12,28083025,178713
OK,26,56,895,26,2014-10-01T03:45:00,12,28083474,178713
OK,21,69,895,21,2014-10-01T03:50:00,5,28083923,178713
OK,29,50,895,29,2014-10-01T03:55:00,7,28084365,178713
OK,29,50,895,29,2014-10-01T04:00:00,5,28084790,178713
OK,19,76,895,19,2014-10-01T04:05:00,5,28085238,178713
OK,39,37,895,39,2014-10-01T04:10:00,8,28085683,178713
OK,22,66,895,22,2014-10-01T04:15:00,10,28086132,178713
OK,24,60,895,24,2014-10-01T04:20:00,15,28086574,178713
OK,37,39,895,37,2014-10-01T04:25:00,15,28087023,178713
OK,22,66,895,22,2014-10-01T04:30:00,13,28087468,178713
OK,31,47,895,31,2014-10-01T04:35:00,15,28087917,178713
OK,33,44,895,33,2014-10-01T04:40:00,20,28088342,178713
OK,32,45,895,32,2014-10-01T04:45:00,28,28088790,178713
OK,56,26,895,56,2014-10-01T04:50:00,26,28089220,178713
OK,56,26,895,56,2014-10-01T04:55:00,19,28089669,178713
OK,34,42,895,34,2014-10-01T05:05:00,23,28090118,178713
OK,42,34,895,42,2014-10-01T05:10:00,18,28090911,178713
OK,47,31,895,47,2014-10-01T05:15:00,15,28091360,178713
OK,50,29,895,50,2014-10-01T05:20:00,21,28091777,178713
OK,36,40,895,36,2014-10-01T05:25:00,28,28092226,178713
OK,35,41,895,35,2014-10-01T05:30:00,35,28092670,178713
OK,33,44,895,33,2014-10-01T05:35:00,33,28093111,178713
OK,30,48,895,30,2014-10-01T05:40:00,37,28093542,178713
OK,44,33,895,44,2014-10-01T05:45:00,35,28093991,178713
OK,44,33,895,44,2014-10-01T05:50:00,28,28094403,178713
OK,45,32,895,45,2014-10-01T05:55:00,22,28094847,178713
OK,47,31,895,47,2014-10-01T06:00:00,23,28095294,178713
OK,54,27,895,54,2014-10-01T06:05:00,30,28095743,178713
OK,48,30,895,48,2014-10-01T06:10:00,44,28096156,178713
OK,44,33,895,44,2014-10-01T06:15:00,49,28096605,178713
OK,41,35,895,41,2014-10-01T06:20:00,35,28097039,178713
OK,41,35,895,41,2014-10-01T06:25:00,23,28097488,178713
OK,38,38,895,38,2014-10-01T06:30:00,36,28097937,178713
OK,49,29,895,49,2014-10-01T06:35:00,25,28098375,178713
OK,49,29,895,49,2014-10-01T06:40:00,26,28098818,178713
OK,48,30,895,48,2014-10-01T06:45:00,37,28099266,178713
OK,44,33,895,44,2014-10-01T06:50:00,27,28099609,178713
OK,49,29,895,49,2014-10-01T06:55:00,23,28100058,178713
OK,51,28,895,51,2014-10-01T07:00:00,17,28100365,178713
OK,41,35,895,41,2014-10-01T07:05:00,14,28100814,178713
OK,39,37,895,39,2014-10-01T07:10:00,14,28101185,178713
OK,45,32,895,45,2014-10-01T07:15:00,14,28101634,178713
OK,52,28,895,52,2014-10-01T07:20:00,17,28102070,178713
OK,44,33,895,44,2014-10-01T07:25:00,20,28102519,178713
OK,38,38,895,38,2014-10-01T07:30:00,15,28102949,178713
OK,44,33,895,44,2014-10-01T07:35:00,11,28103393,178713
OK,41,35,895,41,2014-10-01T07:40:00,16,28103838,178713
OK,26,56,895,26,2014-10-01T07:45:00,22,28104283,178713
OK,23,63,895,23,2014-10-01T07:50:00,21,28104725,178713
OK,23,63,895,23,2014-10-01T07:55:00,19,28105169,178713
OK,21,69,895,21,2014-10-01T08:00:00,19,28105609,178713
OK,22,66,895,22,2014-10-01T08:05:00,15,28106058,178713
OK,23,63,895,23,2014-10-01T08:10:00,20,28106495,178713
OK,25,58,895,25,2014-10-01T08:15:00,19,28106901,178713
OK,23,63,895,23,2014-10-01T08:20:00,15,28107333,178713
OK,22,66,895,22,2014-10-01T08:25:00,13,28107782,178713
OK,20,73,895,20,2014-10-01T08:30:00,21,28108221,178713
OK,22,66,895,22,2014-10-01T08:35:00,17,28108670,178713
OK,23,63,895,23,2014-10-01T08:40:00,7,28109098,178713
OK,19,76,895,19,2014-10-01T08:45:00,9,28109547,178713
OK,24,60,895,24,2014-10-01T08:50:00,13,28109890,178713
OK,19,76,895,19,2014-10-01T08:55:00,11,28110339,178713
OK,21,69,895,21,2014-10-01T09:00:00,12,28110762,178713
OK,21,69,895,21,2014-10-01T09:05:00,14,28111211,178713
OK,21,69,895,21,2014-10-01T09:10:00,13,28111640,178713
OK,23,63,895,23,2014-10-01T09:15:00,11,28112089,178713
OK,21,69,895,21,2014-10-01T09:20:00,12,28112430,178713
OK,21,69,895,21,2014-10-01T09:25:00,16,28112879,178713
OK,21,69,895,21,2014-10-01T09:30:00,14,28113303,178713
OK,22,66,895,22,2014-10-01T09:35:00,13,28113752,178713
OK,22,66,895,22,2014-10-01T09:40:00,7,28114184,178713
OK,14,104,895,14,2014-10-01T09:45:00,1,28114633,178713
OK,23,63,895,23,2014-10-01T09:50:00,18,28114987,178713
OK,22,66,895,22,2014-10-01T09:55:00,22,28115436,178713
OK,22,66,895,22,2014-10-01T10:00:00,13,28115848,178713
OK,21,69,895,21,2014-10-01T10:05:00,10,28116297,178713
OK,21,69,895,21,2014-10-01T10:10:00,11,28116705,178713
OK,23,63,895,23,2014-10-01T10:15:00,13,28117154,178713
OK,22,66,895,22,2014-10-01T10:20:00,13,28117579,178713
OK,22,66,895,22,2014-10-01T10:25:00,14,28118028,178713
OK,22,66,895,22,2014-10-01T10:30:00,15,28118473,178713
OK,21,69,895,21,2014-10-01T10:35:00,16,28118920,178713
OK,23,63,895,23,2014-10-01T10:40:00,15,28119364,178713
OK,20,73,895,20,2014-10-01T10:45:00,15,28119812,178713
OK,21,69,895,21,2014-10-01T10:50:00,20,28120260,178713
OK,21,69,895,21,2014-10-01T10:55:00,17,28120709,178713
OK,24,60,895,24,2014-10-01T11:00:00,10,28121092,178713
OK,27,54,895,27,2014-10-01T11:05:00,7,28121541,178713
OK,22,66,895,22,2014-10-01T11:10:00,12,28121979,178713
OK,21,69,895,21,2014-10-01T11:15:00,14,28122428,178713
OK,22,66,895,22,2014-10-01T11:20:00,14,28122869,178713
OK,23,63,895,23,2014-10-01T11:25:00,9,28123318,178713
OK,20,73,895,20,2014-10-01T11:30:00,7,28123750,178713
OK,20,73,895,20,2014-10-01T11:35:00,8,28124199,178713
OK,21,69,895,21,2014-10-01T11:40:00,5,28124601,178713
OK,52,28,895,52,2014-10-01T11:45:00,6,28125050,178713
OK,52,28,895,52,2014-10-01T11:50:00,13,28125479,178713
OK,53,27,895,53,2014-10-01T11:55:00,14,28125928,178713
OK,57,25,895,57,2014-10-01T12:00:00,15,28126280,178713
OK,56,26,895,56,2014-10-01T12:05:00,18,28126729,178713
OK,52,28,895,52,2014-10-01T12:10:00,15,28127178,178713
OK,58,25,895,58,2014-10-01T12:15:00,10,28127627,178713
OK,58,25,895,58,2014-10-01T12:20:00,11,28128055,178713
OK,59,24,895,59,2014-10-01T12:25:00,20,28128504,178713
OK,59,24,895,59,2014-10-01T12:30:00,25,28128939,178713
OK,56,26,895,56,2014-10-01T12:35:00,17,28129388,178713
OK,56,26,895,56,2014-10-01T12:40:00,12,28129822,178713
OK,54,27,895,54,2014-10-01T12:45:00,9,28130271,178713
OK,57,25,895,57,2014-10-01T12:50:00,17,28130699,178713
OK,58,25,895,58,2014-10-01T12:55:00,22,28131148,178713
OK,58,25,895,58,2014-10-01T13:00:00,17,28131585,178713
OK,52,28,895,52,2014-10-01T13:05:00,14,28132034,178713
OK,51,28,895,51,2014-10-01T13:10:00,12,28132472,178713
OK,57,25,895,57,2014-10-01T13:15:00,17,28132919,178713
OK,54,27,895,54,2014-10-01T13:20:00,24,28133357,178713
OK,55,26,895,55,2014-10-01T13:25:00,19,28133806,178713
OK,54,27,895,54,2014-10-01T13:30:00,14,28134245,178713
OK,52,28,895,52,2014-10-01T13:35:00,9,28134694,178713
OK,50,29,895,50,2014-10-01T13:40:00,11,28135113,178713
OK,41,35,895,41,2014-10-01T13:45:00,19,28135562,178713
OK,54,27,895,54,2014-10-01T13:50:00,21,28135999,178713
OK,57,25,895,57,2014-10-01T13:55:00,20,28136448,178713
OK,55,26,895,55,2014-10-01T14:00:00,11,28136888,178713
OK,53,27,895,53,2014-10-01T14:05:00,8,28137337,178713
OK,53,27,895,53,2014-10-01T14:10:00,18,28137771,178713
OK,55,26,895,55,2014-10-01T14:15:00,14,28138220,178713
OK,50,29,895,50,2014-10-01T14:20:00,12,28138648,178713
OK,55,26,895,55,2014-10-01T14:25:00,18,28139097,178713
OK,58,25,895,58,2014-10-01T14:30:00,19,28139508,178713
OK,57,25,895,57,2014-10-01T14:35:00,11,28139957,178713
OK,51,28,895,51,2014-10-01T14:40:00,21,28140399,178713
OK,52,28,895,52,2014-10-01T14:45:00,30,28140848,178713
OK,53,27,895,53,2014-10-01T14:50:00,23,28141274,178713
OK,53,27,895,53,2014-10-01T14:55:00,14,28141723,178713
OK,56,26,895,56,2014-10-01T15:00:00,16,28142151,178713
OK,57,25,895,57,2014-10-01T15:05:00,19,28142600,178713
OK,49,29,895,49,2014-10-01T15:10:00,19,28143027,178713
OK,28,52,895,28,2014-10-01T15:15:00,16,28143476,178713
OK,57,25,895,57,2014-10-01T15:20:00,6,28143924,178713
OK,50,29,895,50,2014-10-01T15:25:00,7,28144373,178713
OK,32,45,895,32,2014-10-01T15:30:00,9,28144795,178713
OK,45,32,895,45,2014-10-01T15:35:00,14,28145208,178713
OK,55,26,895,55,2014-10-01T15:40:00,30,28145657,178713
OK,56,26,895,56,2014-10-01T15:45:00,27,28146106,178713
OK,42,34,895,42,2014-10-01T15:50:00,22,28146555,178713
OK,25,58,895,25,2014-10-01T15:55:00,15,28146964,178713
OK,24,60,895,24,2014-10-01T16:00:00,10,28147407,178713
OK,22,66,895,22,2014-10-01T16:05:00,10,28147856,178713
OK,22,66,895,22,2014-10-01T16:10:00,13,28148257,178713
OK,23,63,895,23,2014-10-01T16:15:00,11,28148706,178713
OK,21,69,895,21,2014-10-01T16:20:00,17,28149145,178713
OK,21,69,895,21,2014-10-01T16:25:00,14,28149594,178713
OK,20,73,895,20,2014-10-01T16:30:00,7,28150020,178713
OK,22,66,895,22,2014-10-01T16:35:00,6,28150469,178713
OK,20,73,895,20,2014-10-01T16:40:00,13,28150887,178713
OK,21,69,895,21,2014-10-01T16:45:00,15,28151336,178713
OK,21,69,895,21,2014-10-01T16:50:00,10,28151785,178713
OK,24,60,895,24,2014-10-01T17:00:00,6,28152234,178713
OK,23,63,895,23,2014-10-01T17:05:00,9,28152680,178713
OK,22,66,895,22,2014-10-01T17:10:00,10,28153127,178713
OK,29,50,895,29,2014-10-01T17:15:00,10,28153576,178713
OK,21,69,895,21,2014-10-01T17:20:00,9,28153986,178713
OK,21,69,895,21,2014-10-01T17:25:00,0,28154435,178713
OK,26,56,895,26,2014-10-01T17:30:00,6,28154877,178713
OK,21,69,895,21,2014-10-01T17:35:00,7,28155325,178713
OK,21,69,895,21,2014-10-01T17:40:00,6,28155743,178713
OK,18,81,895,18,2014-10-01T17:45:00,2,28156192,178713
OK,18,81,895,18,2014-10-01T17:50:00,1,28156641,178713
OK,19,76,895,19,2014-10-01T17:55:00,3,28157079,178713
OK,25,58,895,25,2014-10-01T18:00:00,3,28157509,178713
OK,25,58,895,25,2014-10-01T18:05:00,3,28157957,178713
OK,21,69,895,21,2014-10-01T18:10:00,3,28158401,178713
OK,25,58,895,25,2014-10-01T18:15:00,0,28158847,178713
OK,24,60,895,24,2014-10-01T18:20:00,5,28159293,178713
OK,20,73,895,20,2014-10-01T18:25:00,5,28159628,178713
OK,19,76,895,19,2014-10-01T18:30:00,3,28160077,178713
OK,19,76,895,19,2014-10-01T18:35:00,0,28160526,178713
OK,19,76,895,19,2014-10-01T18:40:00,0,28160964,178713
OK,18,81,895,18,2014-10-01T18:45:00,1,28161413,178713
OK,18,81,895,18,2014-10-01T18:50:00,4,28161830,178713
OK,19,76,895,19,2014-10-01T18:55:00,5,28162279,178713
OK,21,69,895,21,2014-10-01T19:00:00,7,28162674,178713
OK,22,66,895,22,2014-10-01T19:05:00,7,28163112,178713
OK,27,54,895,27,2014-10-01T19:10:00,7,28163560,178713
OK,34,42,895,34,2014-10-01T19:15:00,2,28164009,178713
OK,21,69,895,21,2014-10-01T19:20:00,4,28164440,178713
OK,25,58,895,25,2014-10-01T19:25:00,7,28164889,178713
OK,23,63,895,23,2014-10-01T19:30:00,2,28165314,178713
OK,20,73,895,20,2014-10-01T19:35:00,6,28165762,178713
OK,25,58,895,25,2014-10-01T19:40:00,7,28166203,178713
OK,37,39,895,37,2014-10-01T19:45:00,6,28166565,178713
OK,30,48,895,30,2014-10-01T19:50:00,4,28167014,178713
OK,51,28,895,51,2014-10-01T19:55:00,3,28167443,178713
OK,31,47,895,31,2014-10-01T20:00:00,1,28167876,178713
OK,28,52,895,28,2014-10-01T20:05:00,2,28168325,178713
OK,38,38,895,38,2014-10-01T20:10:00,5,28168770,178713
OK,38,38,895,38,2014-10-01T20:15:00,3,28169219,178713
OK,49,29,895,49,2014-10-01T20:20:00,7,28169667,178713
OK,36,40,895,36,2014-10-01T20:25:00,10,28170093,178713
OK,29,50,895,29,2014-10-01T20:30:00,2,28170538,178713
OK,20,73,895,20,2014-10-01T20:35:00,5,28170986,178713
OK,20,73,895,20,2014-10-01T20:40:00,3,28171423,178713
OK,12,121,895,12,2014-10-01T20:45:00,1,28171869,178713
OK,15,97,895,15,2014-10-01T20:50:00,2,28172317,178713
OK,22,66,895,22,2014-10-01T20:55:00,3,28172763,178713
OK,22,66,895,22,2014-10-01T21:00:00,1,28173209,178713
OK,29,50,895,29,2014-10-01T21:05:00,2,28173658,178713
OK,40,36,895,40,2014-10-01T21:10:00,3,28174099,178713
OK,32,45,895,32,2014-10-01T21:15:00,2,28174548,178713
OK,52,28,895,52,2014-10-01T21:20:00,1,28174974,178713
OK,69,21,895,69,2014-10-01T21:25:00,2,28175370,178713
OK,86,16,895,86,2014-10-01T21:30:00,0,28175819,178713
OK,33,44,895,33,2014-10-01T21:35:00,1,28176268,178713
OK,33,44,895,33,2014-10-01T21:40:00,1,28176717,178713
OK,20,73,895,20,2014-10-01T21:45:00,1,28177074,178713
OK,37,39,895,37,2014-10-01T21:50:00,1,28177513,178713
OK,27,54,895,27,2014-10-01T21:55:00,2,28177959,178713
OK,17,85,895,17,2014-10-01T22:00:00,0,28178408,178713
OK,17,85,895,17,2014-10-01T22:05:00,0,28178855,178713
OK,17,85,895,17,2014-10-01T22:10:00,0,28179289,178713
OK,17,85,895,17,2014-10-01T22:15:00,0,28179732,178713
OK,48,30,895,48,2014-10-01T22:20:00,2,28180179,178713
OK,44,33,895,44,2014-10-01T22:25:00,0,28180577,178713
OK,44,33,895,44,2014-10-01T22:30:00,0,28181026,178713
OK,44,33,895,44,2014-10-01T22:35:00,0,28181450,178713
OK,44,33,895,44,2014-10-01T22:40:00,0,28181898,178713
OK,18,81,895,18,2014-10-01T22:45:00,0,28182345,178713
OK,18,81,895,18,2014-10-01T22:50:00,0,28182794,178713
OK,18,81,895,18,2014-10-01T22:55:00,0,28183211,178713
OK,20,73,895,20,2014-10-01T23:00:00,2,28183644,178713
OK,20,73,895,20,2014-10-01T23:05:00,0,28184089,178713
OK,20,73,895,20,2014-10-01T23:10:00,0,28184538,178713
OK,20,73,895,20,2014-10-01T23:15:00,0,28184973,178713
OK,20,73,895,20,2014-10-01T23:20:00,0,28185421,178713
OK,20,73,895,20,2014-10-01T23:25:00,0,28185852,178713
OK,20,73,895,20,2014-10-01T23:30:00,0,28186244,178713
OK,11,132,895,11,2014-10-01T23:40:00,0,28187091,178713
OK,11,132,895,11,2014-10-01T23:55:00,0,28188423,178713
OK,11,132,895,11,2014-10-02T00:00:00,0,28188859,178713
OK,11,132,895,11,2014-10-02T00:05:00,0,28189308,178713
OK,11,132,895,11,2014-10-02T00:10:00,0,28189730,178713
OK,20,73,895,20,2014-10-02T00:15:00,0,28190179,178713
OK,20,73,895,20,2014-10-02T00:20:00,0,28190532,178713
OK,20,73,895,20,2014-10-02T00:25:00,0,28190981,178713
OK,20,73,895,20,2014-10-02T00:30:00,0,28191430,178713
OK,20,73,895,20,2014-10-02T00:35:00,0,28191736,178713
OK,20,73,895,20,2014-10-02T00:40:00,0,28192185,178713
OK,20,73,895,20,2014-10-02T00:45:00,0,28192618,178713
OK,20,73,895,20,2014-10-02T00:50:00,0,28193062,178713
OK,20,73,895,20,2014-10-02T00:55:00,0,28193429,178713
OK,20,73,895,20,2014-10-02T01:05:00,0,28194327,178713
OK,20,73,895,20,2014-10-02T01:10:00,0,28194776,178713
OK,20,73,895,20,2014-10-02T01:15:00,0,28195025,178713
OK,20,73,895,20,2014-10-02T01:20:00,0,28195461,178713
OK,20,73,895,20,2014-10-02T01:30:00,0,28195910,178713
OK,20,73,895,20,2014-10-02T01:35:00,0,28196643,178713
OK,20,73,895,20,2014-10-02T01:40:00,0,28197066,178713
OK,20,73,895,20,2014-10-02T01:45:00,0,28197515,178713
OK,20,73,895,20,2014-10-02T01:50:00,0,28197963,178713
OK,20,73,895,20,2014-10-02T01:55:00,0,28198411,178713
OK,20,73,895,20,2014-10-02T02:00:00,0,28198860,178713
OK,20,73,895,20,2014-10-02T02:05:00,0,28199234,178713
OK,20,73,895,20,2014-10-02T02:10:00,0,28199674,178713
OK,15,97,895,15,2014-10-02T02:15:00,1,28200116,178713
OK,15,97,895,15,2014-10-02T02:20:00,0,28200559,178713
OK,15,97,895,15,2014-10-02T02:25:00,0,28201008,178713
OK,15,97,895,15,2014-10-02T02:30:00,0,28201439,178713
OK,15,97,895,15,2014-10-02T02:45:00,0,28202337,178713
OK,33,44,895,33,2014-10-02T02:50:00,3,28202779,178713
OK,19,76,895,19,2014-10-02T02:55:00,0,28203227,178713
OK,19,76,895,19,2014-10-02T03:00:00,0,28203662,178713
OK,23,63,895,23,2014-10-02T03:10:00,1,28204111,178713
OK,16,91,895,16,2014-10-02T03:25:00,3,28204560,178713
OK,14,104,895,14,2014-10-02T03:30:00,0,28205009,178713
OK,22,66,895,22,2014-10-02T03:35:00,5,28205437,178713
OK,16,91,895,16,2014-10-02T03:40:00,2,28205884,178713
OK,26,56,895,26,2014-10-02T03:45:00,8,28206267,178713
OK,11,132,895,11,2014-10-02T03:55:00,0,28207165,178713
OK,21,69,895,21,2014-10-02T04:00:00,7,28207585,178713
OK,59,24,895,59,2014-10-02T04:05:00,0,28208033,178713
OK,28,52,895,28,2014-10-02T04:10:00,3,28208460,178713
OK,25,58,895,25,2014-10-02T04:15:00,0,28208909,178713
OK,43,33,895,43,2014-10-02T04:20:00,5,28209347,178713
OK,28,52,895,28,2014-10-02T04:25:00,0,28209796,178713
OK,27,54,895,27,2014-10-02T04:30:00,10,28210219,178713
OK,29,50,895,29,2014-10-02T04:35:00,7,28210668,178713
OK,39,37,895,39,2014-10-02T04:40:00,15,28211093,178713
OK,52,28,895,52,2014-10-02T04:45:00,4,28211537,178713
OK,52,28,895,52,2014-10-02T04:50:00,0,28211915,178713
OK,25,58,895,25,2014-10-02T04:55:00,15,28212364,178713
OK,22,66,895,22,2014-10-02T05:00:00,2,28212793,178713
OK,22,66,895,22,2014-10-02T05:05:00,9,28213242,178713
OK,18,81,895,18,2014-10-02T05:10:00,1,28213680,178713
OK,23,63,895,23,2014-10-02T05:15:00,8,28214129,178713
OK,24,60,895,24,2014-10-02T05:20:00,3,28214542,178713
OK,21,69,895,21,2014-10-02T05:25:00,20,28214991,178713
OK,21,69,895,21,2014-10-02T05:30:00,0,28215407,178713
OK,21,69,895,21,2014-10-02T05:35:00,0,28215856,178713
OK,25,58,895,25,2014-10-02T05:40:00,25,28216208,178713
OK,25,58,895,25,2014-10-02T05:45:00,6,28216635,178713
OK,21,69,895,21,2014-10-02T05:50:00,0,28217082,178713
OK,31,47,895,31,2014-10-02T05:55:00,45,28217531,178713
OK,43,33,895,43,2014-10-02T06:00:00,36,28217970,178713
OK,33,44,895,33,2014-10-02T06:05:00,30,28218419,178713
OK,26,56,895,26,2014-10-02T06:10:00,6,28218839,178713
OK,24,60,895,24,2014-10-02T06:15:00,25,28219288,178713
OK,25,58,895,25,2014-10-02T06:20:00,27,28219661,178713
OK,24,60,895,24,2014-10-02T06:25:00,47,28220110,178713
OK,24,60,895,24,2014-10-02T06:30:00,41,28220544,178713
OK,25,58,895,25,2014-10-02T06:35:00,20,28220993,178713
OK,22,66,895,22,2014-10-02T06:40:00,21,28221376,178713
OK,23,63,895,23,2014-10-02T06:45:00,26,28221660,178713
OK,20,73,895,20,2014-10-02T07:00:00,22,28222254,178713
OK,22,66,895,22,2014-10-02T07:05:00,17,28222703,178713
OK,22,66,895,22,2014-10-02T07:10:00,13,28223134,178713
OK,24,60,895,24,2014-10-02T07:15:00,3,28223570,178713
OK,19,76,895,19,2014-10-02T07:20:00,0,28224017,178713
OK,20,73,895,20,2014-10-02T07:25:00,17,28224372,178713
OK,19,76,895,19,2014-10-02T07:30:00,6,28224821,178713
OK,21,69,895,21,2014-10-02T07:35:00,14,28225270,178713
OK,22,66,895,22,2014-10-02T07:40:00,3,28225592,178713
OK,52,28,895,52,2014-10-02T07:50:00,15,28226482,178713
OK,46,31,895,46,2014-10-02T07:55:00,16,28226931,178713
OK,27,54,895,27,2014-10-02T08:00:00,8,28227346,178713
OK,41,35,895,41,2014-10-02T08:05:00,12,28227795,178713
OK,41,35,895,41,2014-10-02T08:10:00,4,28228154,178713
OK,48,30,895,48,2014-10-02T08:15:00,13,28228603,178713
OK,46,31,895,46,2014-10-02T08:20:00,2,28229013,178713
OK,38,38,895,38,2014-10-02T08:25:00,18,28229462,178713
OK,42,34,895,42,2014-10-02T08:30:00,5,28229812,178713
OK,34,42,895,34,2014-10-02T08:35:00,8,28230261,178713
OK,60,24,895,60,2014-10-02T08:40:00,1,28230628,178713
OK,60,24,895,60,2014-10-02T08:45:00,0,28231076,178713
OK,43,33,895,43,2014-10-02T08:50:00,29,28231499,178713
OK,45,32,895,45,2014-10-02T08:55:00,5,28231948,178713
OK,39,37,895,39,2014-10-02T09:00:00,24,28232290,178713
OK,51,28,895,51,2014-10-02T09:10:00,0,28232739,178713
OK,38,38,895,38,2014-10-02T09:15:00,14,28233188,178713
OK,38,38,895,38,2014-10-02T09:20:00,7,28233612,178713
OK,31,47,895,31,2014-10-02T09:25:00,13,28234061,178713
OK,23,63,895,23,2014-10-02T09:30:00,4,28234394,178713
OK,28,52,895,28,2014-10-02T09:35:00,6,28234843,178713
OK,28,52,895,28,2014-10-02T09:40:00,0,28235270,178713
OK,34,42,895,34,2014-10-02T09:45:00,22,28235719,178713
OK,44,33,895,44,2014-10-02T09:50:00,5,28236162,178713
OK,44,33,895,44,2014-10-02T09:55:00,22,28236609,178713
OK,54,27,895,54,2014-10-02T10:00:00,3,28237012,178713
OK,55,26,895,55,2014-10-02T10:05:00,0,28237460,178713
OK,53,27,895,53,2014-10-02T10:10:00,12,28237908,178713
OK,55,26,895,55,2014-10-02T10:15:00,14,28238355,178713
OK,50,29,895,50,2014-10-02T10:20:00,21,28238796,178713
OK,44,33,895,44,2014-10-02T10:25:00,12,28239245,178713
OK,46,31,895,46,2014-10-02T10:30:00,2,28239675,178713
OK,44,33,895,44,2014-10-02T10:35:00,20,28240124,178713
OK,38,38,895,38,2014-10-02T10:40:00,15,28240568,178713
OK,46,31,895,46,2014-10-02T10:45:00,11,28241017,178713
OK,46,31,895,46,2014-10-02T10:50:00,5,28241449,178713
OK,32,45,895,32,2014-10-02T10:55:00,13,28241897,178713
OK,25,58,895,25,2014-10-02T11:00:00,2,28242293,178713
OK,20,73,895,20,2014-10-02T11:05:00,0,28242742,178713
OK,26,56,895,26,2014-10-02T11:15:00,13,28243191,178713
OK,55,26,895,55,2014-10-02T11:20:00,7,28243954,178713
OK,55,26,895,55,2014-10-02T11:25:00,3,28244383,178713
OK,42,34,895,42,2014-10-02T11:30:00,0,28244832,178713
OK,49,29,895,49,2014-10-02T11:35:00,16,28245281,178713
OK,51,28,895,51,2014-10-02T11:40:00,2,28245687,178713
OK,51,28,895,51,2014-10-02T11:45:00,0,28246136,178713
OK,21,69,895,21,2014-10-02T11:50:00,19,28246573,178713
OK,22,66,895,22,2014-10-02T11:55:00,17,28247022,178713
OK,21,69,895,21,2014-10-02T12:00:00,12,28247468,178713
OK,19,76,895,19,2014-10-02T12:05:00,5,28247898,178713
OK,16,91,895,16,2014-10-02T12:10:00,0,28248347,178713
OK,22,66,895,22,2014-10-02T12:15:00,10,28248794,178713
OK,22,66,895,22,2014-10-02T12:20:00,5,28249222,178713
OK,21,69,895,21,2014-10-02T12:25:00,15,28249666,178713
OK,18,81,895,18,2014-10-02T12:30:00,6,28250085,178713
OK,22,66,895,22,2014-10-02T12:35:00,18,28250483,178713
OK,21,69,895,21,2014-10-02T12:45:00,8,28251263,178713
OK,24,60,895,24,2014-10-02T13:20:00,15,28251808,178713
OK,21,69,895,21,2014-10-02T13:30:00,19,28252392,178713
OK,21,69,895,21,2014-10-02T13:35:00,6,28252834,178713
OK,20,73,895,20,2014-10-02T13:40:00,0,28253251,178713
OK,23,63,895,23,2014-10-02T13:45:00,14,28253700,178713
OK,22,66,895,22,2014-10-02T13:50:00,11,28254105,178713
OK,21,69,895,21,2014-10-02T13:55:00,13,28254426,178713
OK,21,69,895,21,2014-10-02T14:10:00,13,28255003,178713
OK,21,69,895,21,2014-10-02T14:15:00,14,28255452,178713
OK,21,69,895,21,2014-10-02T14:20:00,7,28255880,178713
OK,19,76,895,19,2014-10-02T14:25:00,1,28256329,178713
OK,19,76,895,19,2014-10-02T14:30:00,6,28256757,178713
OK,21,69,895,21,2014-10-02T14:35:00,12,28257206,178713
OK,21,69,895,21,2014-10-02T14:40:00,11,28257647,178713
OK,22,66,895,22,2014-10-02T14:45:00,15,28258095,178713
OK,22,66,895,22,2014-10-02T14:50:00,22,28258528,178713
OK,20,73,895,20,2014-10-02T14:55:00,18,28258974,178713
OK,18,81,895,18,2014-10-02T15:00:00,10,28259423,178713
OK,20,73,895,20,2014-10-02T15:05:00,8,28259870,178713
OK,22,66,895,22,2014-10-02T15:10:00,13,28260303,178713
OK,21,69,895,21,2014-10-02T15:15:00,21,28260752,178713
OK,22,66,895,22,2014-10-02T15:20:00,9,28261192,178713
OK,19,76,895,19,2014-10-02T15:25:00,10,28261574,178713
OK,20,73,895,20,2014-10-02T15:30:00,7,28262004,178713
OK,26,56,895,26,2014-10-02T15:40:00,5,28262897,178713
OK,21,69,895,21,2014-10-02T15:45:00,18,28263335,178713
OK,18,81,895,18,2014-10-02T15:50:00,9,28263776,178713
OK,22,66,895,22,2014-10-02T15:55:00,0,28264178,178713
OK,22,66,895,22,2014-10-02T16:00:00,0,28264627,178713